Weather in Sokolovyy

Russia / Saratov Oblast     51°34′10″N   45°50′06″E
В апреле 2022 года жителям России запретили посещать сайт meteo.paraplan.net по решению Генеральной прокуратуры. Аудитория сайта уменьшилась в 10 раз. Владельцы сайта не видят смысла в поддержке погодного сервера в таких условиях. Сайт будет закрыт в октябре.
temp.,
°C
wind,
m/s
gust,
m/s
humid.,
%
clouds,
%
prec.,
mm/h
press.,
hPa
HPBL,
m
25 september, sun
sun2501:00+12ssw116499 0.0 101019
04:00+10wsw3765100 0.0 1010153
07:00+11se1164100 0.1 100827
10:00+10w3574100 0.3 1008561
13:00+13sw3558100 0.8 1007980
16:00+13wsw8960100 1.0 10071186
19:00+9wsw61181100 0.0 1008732
22:00+9w6983100 0.6 1009862
26 september, mon
mon2601:00+8wsw61084100 0.1 1009976
04:00+8wsw71185100 0.3 10091260
07:00+8w61288100 0.5 10091410
10:00+8w81181100 0.8 10111322
13:00+10w81369100 0.1 10131272
16:00+13w8114993 0.1 10131844
19:00+11w6125498 0.0 1015718
22:00+10w5105497 0.0 1016622
27 september, tue
tue2701:00+9wsw3761100 0.0 1016248
04:00+10sw3658100 0.0 1016152
07:00+10sse2262100 0.0 101646
10:00+10sse2574100 0.1 1016286
13:00+10se4684100 1.1 1016294
16:00+14se5772100 1.2 1014443
19:00+13se3476100 0.0 101461
22:00+13sse2268100 0.0 101426
28 september, wed
wed2801:00+12sse3476100 0.0 101369
04:00+12ese3786100 0.6 1013152
07:00+12ese4879100 0.1 1012167
10:00+14se41070100 0.1 1011406
13:00+18sse6853100 0.0 1010691
16:00+18se4856100 0.0 1009631
19:00+17se61262100 0.0 1008401
22:00+15se3868100 0.0 1008138
29 september, thu
thu2901:00+14ene337167 0.3 100855
04:00+14se227292 0.3 100824
07:00+13w2277100 0.0 100812
10:00+17wnw24687 0.0 1009322
13:00+21nw445827 0.1 10101149
16:00+21nw444936 0.4 10111668
19:00+17nw476219 0.0 1013127
22:00+14nnw37741 0.0 1015117